#timestamp,LO_Frequency,Hit 
1504512015.5,286046996.2,N
1504512035.3,286046995.0,N
1504512055.2,286046994.0,N
1504512075.9,286046995.3,N
1504512095.7,286046997.2,N
1504512115.6,286046998.6,N
1504512135.4,286046999.6,N
1504512155.2,286046998.4,N
1504512175.0,286046999.3,N
1504512175.9,286046999.3,N
1504512195.8,286046996.8,N
1504512215.6,286046999.5,N
1504512235.4,286046996.7,N
1504512255.3,286046997.7,N
1504512275.1,286046995.5,N
1504512295.8,286046997.2,N
1504512315.7,286046994.2,N
1504512335.5,286046994.7,N
1504512355.3,286046993.2,N
1504512375.2,286046990.3,P
1504512395.9,286046990.1,N
1504512415.7,286046989.1,N
1504512435.6,286046989.5,N
1504512455.4,286046991.4,N
1504512475.2,286046994.7,N
1504512495.1,286046993.3,N
1504512496.0,286046993.3,N
1504512515.8,286046997.8,N
1504512535.6,286046996.4,N
1504512555.5,286046996.0,N
1504512575.3,286046993.3,N
1504512595.1,286046996.1,N
1504512615.8,286046995.6,N
1504512635.7,286046995.7,N
1504512655.5,286046996.0,N
1504512675.3,286046995.0,N
1504512695.2,286046995.3,N
1504512715.9,286046991.9,P
1504512735.7,286046999.1,N
1504512755.6,286047000.5,N
1504512775.4,286047000.4,N
1504512795.2,286046998.2,N
1504512815.1,286047000.9,N
1504512816.0,286047000.9,N
1504512835.8,286046996.9,N
1504512855.6,286046994.9,N
1504512875.5,286046999.6,N
1504512895.3,286046999.4,N
1504512915.1,286046999.1,N
1504512935.9,286046997.1,N
1504512955.7,286046997.5,N
1504512975.5,286046996.5,N
1504512995.3,286046997.1,N
1504513015.2,286046995.8,N
1504513035.0,286046996.0,N
1504513035.9,286046996.0,N
1504513055.7,286046994.1,N
1504513075.6,286046992.3,P
1504513095.4,286046995.3,N
1504513115.2,286046995.6,N
1504513135.1,286046996.2,N
1504513136.0,286046996.2,N
1504513155.8,286046996.9,N
1504513175.6,286046999.0,N
1504513195.5,286046997.5,N
1504513215.3,286046993.3,P
1504513235.1,286046999.1,N
1504513255.9,286046996.8,N
1504513275.7,286046999.2,N
1504513295.5,286046999.2,N
1504513315.4,286046998.8,N
1504513335.2,286046996.7,N
1504513355.0,286046999.6,N
1504513355.9,286046999.6,N
1504513375.8,286046997.3,N
1504513395.6,286046997.9,N
1504513415.4,286046997.2,N
1504513435.3,286046997.2,N
1504513455.1,286046996.1,N
1504513456.0,286046996.1,N
1504513475.8,286046996.0,N
1504513495.7,286046994.3,P
1504513515.5,286046997.7,N
1504513535.3,286046997.5,N
1504513555.2,286046997.4,N
1504513575.9,286046997.9,N
1504513595.7,286046995.4,P
1504513615.6,286047000.2,N
1504513635.4,286047000.0,N
1504513655.2,286046998.3,N
1504513675.1,286046997.9,N
1504513676.0,286046997.9,N
1504513695.8,286046997.6,N
1504513715.6,286046998.9,N
1504513735.5,286046999.0,N
1504513755.3,286047000.7,N
1504513775.1,286046998.3,N
1504513795.8,286047000.5,N
1504513815.7,286047001.0,N
1504513835.5,286046998.2,N
1504513855.3,286047000.3,N
1504513875.2,286047004.0,N
1504513895.9,286047000.4,N
1504513915.7,286046998.5,N
1504513935.6,286046999.0,N
1504513955.4,286046996.8,N
1504513975.2,286046999.0,N
1504513995.1,286046997.1,N
1504513996.0,286046997.1,N
1504514015.8,286046995.3,N
1504514035.6,286046993.7,P
1504514055.5,286046995.2,N
1504514075.3,286046995.1,N
1504514095.1,286046996.7,N
1504514115.9,286046995.4,N
1504514135.7,286046995.8,N
1504514155.5,286046994.6,P
1504514175.4,286047000.2,N
1504514195.2,286046999.4,N
1504514215.0,286046999.0,N
1504514215.9,286046999.0,N
1504514235.8,286046997.5,N
1504514255.6,286046993.6,P
1504514275.4,286046995.0,N
1504514295.3,286046997.1,N
1504514315.1,286046997.7,N
1504514316.0,286046997.7,N
1504514335.8,286046996.7,N
1504514355.7,286046997.1,N
1504514375.5,286046997.3,N
1504514395.3,286046997.1,N
1504514415.1,286046997.2,N
1504514435.9,286046996.9,N
1504514455.7,286046999.4,N
1504514475.5,286046999.4,N
1504514495.4,286046997.8,N
1504514515.2,286046995.5,P
1504514535.0,286046998.4,N
1504514535.9,286046998.4,N
1504514555.8,286047001.4,N
1504514575.6,286047002.8,N
1504514595.4,286046999.5,N
1504514615.3,286046997.0,N
1504514635.1,286047000.3,N
1504514655.8,286046999.1,N
1504514675.7,286046998.5,N
1504514695.5,286046996.6,N
1504514715.3,286046999.1,N
1504514735.2,286046994.9,N
1504514755.9,286046995.1,N
1504514775.7,286046995.2,N
1504514795.5,286046995.0,N
1504514815.4,286046995.5,N
1504514835.2,286046993.3,N
1504514855.0,286046994.1,N
1504514855.9,286046994.1,N
1504514875.8,286046994.0,N
1504514895.6,286046994.0,N
1504514915.4,286046993.6,N
1504514935.3,286046992.7,N
1504514955.1,286046991.2,P
1504514975.8,286046994.6,N
1504514995.7,286046992.1,P
1504515015.5,286046993.3,P
1504515035.3,286046998.6,P
1504515055.2,286046998.4,N
1504515075.0,286046999.9,N
1504515075.9,286046999.9,N
1504515095.7,286047001.1,N
1504515115.6,286046998.7,N
1504515135.4,286046998.6,N
1504515155.2,286046997.4,N
1504515175.1,286046993.4,N
1504515176.0,286046993.4,N
1504515195.8,286046997.0,N
1504515215.6,286046997.2,N
1504515235.5,286046995.4,N
1504515255.3,286046994.9,N
1504515275.1,286046995.7,N
1504515295.8,286046995.6,N
1504515315.7,286046995.2,N
1504515335.5,286046995.9,N
1504515355.3,286046993.4,N
1504515375.2,286046994.4,N
1504515395.0,286046991.7,P
1504515395.9,286046991.7,P
1504515415.8,286046995.0,N
1504515435.6,286046994.9,N
1504515455.4,286046994.2,P
1504515475.3,286046999.9,N
1504515495.1,286046999.5,N
1504515496.0,286046999.5,N
1504515515.8,286047002.8,N
1504515535.6,286046999.7,N
1504515555.5,286047000.5,N
1504515575.3,286047000.4,N
1504515595.1,286047000.9,N
